| time (UTC) | temp C | wind direction | speed KPH | gust KPH | rain 1hr cm | rain 24hr cm | rain mn cm | humidity % | barometer mb |
| 20260506193055 | 15 | 130 | 0.0 | 8.0 | 0.15 | 0.20 | 0.20 | 88 | 1007.4 |
| 20260506191555 | 15 | 114 | 0.0 | 8.0 | 0.15 | 0.18 | 0.18 | 88 | 1007.5 |
| 20260506190053 | 15 | 155 | 0.0 | 9.7 | 0.13 | 0.13 | 0.13 | 86 | 1007.4 |
| 20260506184553 | 15 | 163 | 1.6 | 12.9 | 0.10 | 0.10 | 0.10 | 84 | 1007.6 |
| 20260506183056 | 16 | 173 | 0.0 | 6.4 | 0.05 | 0.05 | 0.05 | 82 | 1007.9 |
| 20260506181613 | 16 | 175 | 0.0 | 11.3 | 0.03 | 0.03 | 0.03 | 79 | 1008.0 |
| 20260506180045 | 17 | 159 | 0.0 | 14.5 | 0.00 | 0.00 | 0.00 | 76 | 1008.1 |
| 20260506174545 | 17 | 197 | 8.0 | 25.7 | 0.00 | 0.00 | 0.00 | 72 | 1008.2 |
| 20260506173055 | 18 | 166 | 1.6 | 27.4 | 0.00 | 0.00 | 0.00 | 69 | 1008.3 |
| 20260506171542 | 19 | 177 | 0.0 | 27.4 | 0.00 | 0.00 | 0.00 | 67 | 1008.4 |
| 20260506170041 | 20 | 175 | 1.6 | 29.0 | 0.00 | 0.00 | 0.00 | 65 | 1008.2 |
| 20260506164541 | 20 | 198 | 1.6 | 16.1 | 0.00 | 0.00 | 0.00 | 63 | 1008.1 |
| 20260506163040 | 20 | 168 | 1.6 | 16.1 | 0.00 | 0.00 | 0.00 | 64 | 1008.4 |
| 20260506161538 | 20 | 181 | 0.0 | 25.7 | 0.00 | 0.00 | 0.00 | 65 | 1008.8 |
| 20260506160013 | 20 | 98 | 0.0 | 12.9 | 0.00 | 0.00 | 0.00 | 65 | 1008.8 |
| 20260506154512 | 20 | 191 | 0.0 | 16.1 | 0.00 | 0.00 | 0.00 | 64 | 1009.0 |
| 20260506153003 | 20 | 168 | 12.9 | 33.8 | 0.00 | 0.00 | 0.00 | 64 | 1009.1 |
| 20260506151503 | 20 | 175 | 1.6 | 25.7 | 0.00 | 0.00 | 0.00 | 65 | 1009.2 |
| 20260506150002 | 19 | 177 | 3.2 | 27.4 | 0.00 | 0.00 | 0.00 | 67 | 1009.3 |
| 20260506144500 | 18 | 200 | 0.0 | 14.5 | 0.00 | 0.00 | 0.00 | 69 | 1009.6 |
| 20260506143059 | 18 | 201 | 3.2 | 16.1 | 0.00 | 0.00 | 0.00 | 71 | 1009.6 |
| 20260506141557 | 18 | 176 | 0.0 | 16.1 | 0.00 | 0.00 | 0.00 | 70 | 1009.7 |
| 20260506134556 | 18 | 173 | 0.0 | 17.7 | 0.00 | 0.00 | 0.00 | 74 | 1009.5 |
| 20260506133026 | 17 | 176 | 1.6 | 22.5 | 0.00 | 0.00 | 0.00 | 75 | 1009.5 |
| 20260506131625 | 17 | 169 | 1.6 | 14.5 | 0.00 | 0.00 | 0.00 | 78 | 1009.8 |
| 20260506130022 | 16 | 189 | 0.0 | 12.9 | 0.00 | 0.00 | 0.00 | 81 | 1010.0 |
| 20260506124521 | 15 | 178 | 0.0 | 22.5 | 0.00 | 0.00 | 0.00 | 81 | 1010.1 |
| 20260506123020 | 15 | 129 | 0.0 | 9.7 | 0.00 | 0.00 | 0.00 | 82 | 1010.1 |
| 20260506121520 | 15 | 130 | 0.0 | 11.3 | 0.00 | 0.00 | 0.00 | 83 | 1010.3 |
| 20260506120100 | 15 | 168 | 0.0 | 9.7 | 0.00 | 0.00 | 0.00 | 84 | 1010.0 |
| 20260506114609 | 14 | 190 | 1.6 | 11.3 | 0.00 | 0.00 | 0.00 | 85 | 1010.3 |
| 20260506113058 | 14 | 67 | 0.0 | 11.3 | 0.00 | 0.00 | 0.00 | 85 | 1010.5 |
| 20260506111517 | 14 | 205 | 1.6 | 16.1 | 0.00 | 0.00 | 0.00 | 85 | 1010.6 |
| 20260506110014 | 13 | 119 | 0.0 | 8.0 | 0.00 | 0.00 | 0.00 | 86 | 1010.5 |
| 20260506104513 | 13 | 159 | 0.0 | 9.7 | 0.00 | 0.00 | 0.00 | 86 | 1010.3 |
| 20260506103014 | 13 | 93 | 0.0 | 3.2 | 0.00 | 0.00 | 0.00 | 86 | 1010.4 |
| 20260506101512 | 13 | 173 | 0.0 | 0.0 | 0.00 | 0.00 | 0.00 | 86 | 1010.4 |
| 20260506100011 | 13 | 179 | 0.0 | 8.0 | 0.00 | 0.00 | 0.00 | 85 | 1010.3 |
| 20260506094508 | 13 | 168 | 0.0 | 4.8 | 0.00 | 0.00 | 0.00 | 85 | 1010.4 |
| 20260506093006 | 13 | 192 | 3.2 | 16.1 | 0.00 | 0.00 | 0.00 | 85 | 1010.2 |
| 20260506091506 | 13 | 180 | 0.0 | 6.4 | 0.00 | 0.00 | 0.00 | 85 | 1010.2 |
| 20260506090002 | 13 | 186 | 0.0 | 14.5 | 0.00 | 0.00 | 0.00 | 84 | 1010.4 |
| 20260506084607 | 13 | 131 | 0.0 | 4.8 | 0.00 | 0.00 | 0.00 | 84 | 1010.4 |
| 20260506083059 | 13 | 169 | 0.0 | 4.8 | 0.00 | 0.00 | 0.00 | 84 | 1010.5 |
| 20260506081603 | 13 | 211 | 0.0 | 11.3 | 0.00 | 0.00 | 0.00 | 84 | 1010.7 |
| 20260506080106 | 13 | 166 | 0.0 | 8.0 | 0.00 | 0.00 | 0.00 | 83 | 1010.7 |
| 20260506073038 | 14 | 126 | 0.0 | 9.7 | 0.00 | 0.00 | 0.00 | 81 | 1010.6 |
| 20260506071537 | 14 | 189 | 0.0 | 17.7 | 0.00 | 0.00 | 0.00 | 81 | 1010.5 |
| 20260506061552 | 15 | 200 | 1.6 | 17.7 | 0.00 | 0.00 | 0.00 | 78 | 1010.4 |
| 20260506044533 | 16 | 190 | 3.2 | 9.7 | 0.00 | 0.00 | 0.00 | 72 | 1010.9 |
| 20260506043032 | 16 | 155 | 1.6 | 12.9 | 0.00 | 0.00 | 0.00 | 72 | 1010.9 |
| 20260506041531 | 16 | 187 | 1.6 | 14.5 | 0.00 | 0.00 | 0.00 | 70 | 1010.9 |
| 20260506040029 | 16 | 186 | 3.2 | 16.1 | 0.00 | 0.00 | 0.00 | 70 | 1011.0 |
| 20260506034531 | 16 | 194 | 4.8 | 16.1 | 0.00 | 0.00 | 0.00 | 70 | 1011.0 |
| 20260506033027 | 16 | 131 | 1.6 | 16.1 | 0.00 | 0.00 | 0.00 | 71 | 1010.9 |
| 20260506031525 | 15 | 195 | 0.0 | 12.9 | 0.00 | 0.00 | 0.00 | 71 | 1010.8 |
| 20260506030036 | 15 | 95 | 0.0 | 9.7 | 0.00 | 0.00 | 0.00 | 71 | 1010.8 |
| 20260506024546 | 15 | 193 | 0.0 | 6.4 | 0.00 | 0.00 | 0.00 | 72 | 1010.9 |
| 20260506023023 | 15 | 74 | 0.0 | 0.0 | 0.00 | 0.00 | 0.00 | 72 | 1010.9 |
| 20260506021521 | 15 | 76 | 0.0 | 12.9 | 0.00 | 0.00 | 0.00 | 71 | 1011.0 |
| 20260506020017 | 15 | 198 | 1.6 | 17.7 | 0.00 | 0.00 | 0.00 | 71 | 1010.9 |
| 20260506014514 | 15 | 182 | 0.0 | 11.3 | 0.00 | 0.00 | 0.00 | 71 | 1010.8 |
| 20260506013018 | 15 | 88 | 0.0 | 12.9 | 0.00 | 0.00 | 0.00 | 69 | 1010.6 |
| 20260506011542 | 15 | 129 | 0.0 | 9.7 | 0.00 | 0.00 | 0.00 | 69 | 1010.6 |
| 20260506010038 | 16 | 151 | 0.0 | 11.3 | 0.00 | 0.00 | 0.00 | 68 | 1010.3 |
| 20260506004533 | 16 | 200 | 0.0 | 12.9 | 0.00 | 0.00 | 0.00 | 67 | 1010.2 |
| 20260506003034 | 16 | 174 | 0.0 | 1.6 | 0.00 | 0.00 | 0.00 | 67 | 1010.1 |
| 20260506001526 | 16 | 151 | 0.0 | 11.3 | 0.00 | 0.00 | 0.00 | 66 | 1009.8 |
| 20260506000023 | 17 | 118 | 0.0 | 6.4 | 0.00 | 0.00 | 0.00 | 64 | 1009.6 |
| 20260505234617 | 17 | 143 | 0.0 | 6.4 | 0.00 | 0.00 | 0.00 | 63 | 1009.3 |
| 20260505233018 | 18 | 146 | 0.0 | 3.2 | 0.00 | 0.00 | 0.00 | 61 | 1009.0 |
| 20260505231509 | 19 | 205 | 0.0 | 8.0 | 0.00 | 0.00 | 0.00 | 59 | 1008.8 |
| 20260505230015 | 20 | 161 | 0.0 | 8.0 | 0.00 | 0.00 | 0.00 | 57 | 1008.7 |
| 20260505224534 | 20 | 154 | 0.0 | 12.9 | 0.00 | 0.00 | 0.00 | 54 | 1008.4 |
| 20260505223031 | 21 | 110 | 0.0 | 14.5 | 0.00 | 0.00 | 0.00 | 54 | 1008.0 |
| 20260505221523 | 21 | 55 | 0.0 | 11.3 | 0.00 | 0.00 | 0.00 | 53 | 1007.9 |
| 20260505220022 | 21 | 194 | 0.0 | 14.5 | 0.00 | 0.00 | 0.00 | 53 | 1008.0 |
| 20260505214520 | 22 | 165 | 0.0 | 14.5 | 0.00 | 0.00 | 0.00 | 52 | 1008.0 |
| 20260505213017 | 22 | 166 | 0.0 | 12.9 | 0.00 | 0.00 | 0.00 | 51 | 1008.0 |
| 20260505211515 | 22 | 180 | 0.0 | 19.3 | 0.00 | 0.00 | 0.00 | 52 | 1007.7 |
| 20260505210014 | 23 | 188 | 1.6 | 11.3 | 0.00 | 0.00 | 0.00 | 51 | 1007.8 |
| 20260505204514 | 23 | 174 | 1.6 | 17.7 | 0.00 | 0.00 | 0.00 | 49 | 1007.7 |
| 20260505203013 | 23 | 201 | 0.0 | 14.5 | 0.00 | 0.00 | 0.00 | 50 | 1007.7 |
| 20260505201612 | 24 | 167 | 3.2 | 14.5 | 0.00 | 0.00 | 0.00 | 49 | 1007.6 |
| 20260505200042 | 24 | 157 | 0.0 | 29.0 | 0.00 | 0.00 | 0.00 | 47 | 1007.6 |
| 20260505194547 | 25 | 171 | 0.0 | 17.7 | 0.00 | 0.00 | 0.00 | 47 | 1007.7 |